RH
14 12 11 11 13 12 14 28 35 56 67 71 72 73 71 71 70 69 60 55 52 52 52 50 46 47 47 46 45 44 40 42 39 38 37 35 33 31 28 26 23 20 18 16 15
15 10 10 10 9 8 9 10 10 10 17 33 42 67 75 70 69 71 74 74 66 64 62 60 56 52 51 52 49 48 47 47 43 40 39 36 33 29 26 23 20 18 16 16 15
11 12 13 14 14 14 15 16 16 14 14 14 13 12 19 56 63 65 69 73 77 69 67 63 60 58 56 54 51 45 43 40 39 37 34 30 26 23 20 16 16 17 16 15 15
13 10 9 9 10 12 11 12 13 14 13 14 14 14 14 16 31 44 54 64 68 77 72 65 64 60 56 52 48 43 37 35 31 31 26 22 18 18 18 15 18 16 15 14 13
11 12 11 10 8 7 6 6 6 7 8 7 7 10 11 13 15 14 21 36 59 72 73 66 68 66 52 42 37 33 24 23 22 20 20 20 16 18 11 13 15 12 11 10 11
11 11 11 11 11 12 10 8 7 6 6 6 5 5 5 7 10 14 11 13 50 64 51 38 34 31 28 24 24 19 18 18 16 16 17 18 15 17 11 11 11 9 8 8 7
15 18 20 20 21 18 15 14 13 12 8 7 6 5 5 5 6 7 10 13 25 64 57 43 22 18 20 21 21 19 17 14 11 11 13 14 12 10 10 9 9 9 8 8 8
12 19 20 20 20 20 18 17 14 14 16 13 11 8 6 4 4 4 6 10 23 49 59 50 25 20 19 20 21 20 18 13 10 9 9 10 9 7 6 6 6 6 6 6 7
22 23 22 21 20 18 18 19 18 16 17 18 14 11 7 5 4 4 6 11 20 38 56 49 25 19 19 18 16 12 12 10 9 8 8 7 6 6 5 4 4 5 6 7 8
25 22 25 25 24 22 26 24 23 20 20 21 17 13 9 6 5 4 6 16 19 32 33 31 22 20 19 14 13 12 10 10 9 8 8 7 6 5 4 4 6 7 11 17 26
36 30 24 28 30 32 35 37 30 26 22 22 17 15 9 6 5 5 7 12 17 19 23 23 22 19 14 12 11 10 10 10 10 9 9 7 6 11 7 8 18 22 24 33 35
37 32 30 30 37 40 42 37 34 29 25 24 20 15 9 7 6 6 7 8 12 13 14 15 14 12 11 11 12 12 12 11 10 9 8 7 8 13 22 42 40 40 37 29 22
38 31 29 28 28 28 32 36 33 29 22 26 22 17 11 8 8 8 8 9 9 10 10 10 10 10 12 13 13 13 12 10 9 8 6 6 6 24 53 61 55 47 35 26 20
33 28 22 15 10 10 9 11 18 27 26 19 24 17 13 11 10 10 12 11 10 11 12 13 13 15 17 14 13 12 11 10 8 7 8 37 27 48 56 57 51 38 28 25 31
13 9 8 6 6 7 7 8 8 10 25 25 18 17 16 14 10 9 10 10 12 13 18 22 22 18 13 12 14 13 12 10 8 8 16 55 76 47 50 48 34 31 34 46 66
7 6 10 18 18 17 15 10 35 23 21 22 22 20 17 14 12 11 11 12 13 14 16 16 13 11 12 13 13 13 13 10 8 9 37 69 76 55 53 40 43 43 55 75 89
10 20 22 18 12 14 18 83 94 74 32 36 26 24 21 17 14 12 13 14 13 13 12 11 11 11 10 10 10 12 11 7 9 37 75 84 70 68 52 61 61 68 84 92 88
27 22 19 11 12 53 100 100 99 86 68 62 46 35 27 20 16 14 14 15 14 14 14 12 12 11 11 10 9 11 9 6 13 67 80 88 74 69 68 78 85 92 76 66 57
23 22 15 14 43 70 100 79 99 100 89 83 66 46 32 22 18 15 15 14 15 17 16 15 14 12 11 10 10 13 12 11 12 37 80 89 84 69 87 96 99 94 89 62 23
22 19 22 86 95 90 92 89 100 100 100 100 73 50 36 24 18 15 14 15 17 19 20 17 15 14 12 11 11 11 12 14 26 58 83 96 90 87 100 96 93 86 32 21 14
28 27 83 100 100 100 100 100 94 98 99 100 97 54 35 24 17 14 14 17 21 24 20 16 14 13 12 12 10 9 11 27 54 83 95 98 90 99 97 94 49 53 28 14 7
25 59 89 99 98 100 99 100 92 100 100 96 100 54 29 20 12 13 19 23 25 27 20 15 15 11 12 12 10 10 18 44 63 80 98 93 98 100 96 61 90 19 15 11 25
23 92 87 100 99 99 100 100 100 100 100 98 86 52 23 13 14 22 26 24 33 24 17 19 16 14 10 11 21 17 47 72 92 74 90 96 100 96 97 82 20 19 11 30 47
28 97 94 97 100 100 100 100 100 99 94 97 54 22 14 17 21 21 23 29 21 20 19 18 16 12 11 14 36 54 91 99 94 80 88 99 97 96 83 24 21 18 20 43 89
38 97 100 100 100 100 100 100 100 93 90 32 16 15 18 18 18 21 23 23 24 21 20 19 16 12 11 29 53 81 100 100 91 88 95 100 96 93 74 25 22 18 24 67 93
48 99 100 100 100 100 100 100 98 78 45 28 23 22 18 22 25 26 32 29 24 24 22 17 14 11 26 51 58 96 99 100 96 100 100 92 94 92 25 27 23 21 17 72 86
83 100 100 100 100 100 94 100 97 58 42 27 22 23 27 27 29 30 27 28 28 24 19 18 12 40 99 74 77 97 100 100 100 98 97 99 88 33 27 28 25 22 17 58 79
Wind_Speed
40 40 38 38 41 42 40 40 41 41 43 43 44 44 45 46 47 46 46 43 41 39 37 36 37 38 38 39 39 39 38 36 37 39 39 39 40 40 41 40 39 39 41 40 39
41 40 41 39 38 37 38 37 38 37 39 44 44 44 42 42 44 45 45 45 42 39 37 38 38 40 41 40 41 41 41 39 41 42 41 41 41 41 42 42 40 43 44 43 42
34 35 35 38 40 41 43 43 41 39 38 39 41 43 44 44 43 43 43 42 42 39 36 36 38 40 41 42 40 40 41 40 42 43 42 42 41 42 42 40 43 45 46 46 46
36 34 35 38 38 41 41 43 46 44 42 42 42 42 45 43 42 41 41 41 43 43 38 37 38 39 39 40 39 39 38 39 41 42 42 42 41 42 43 42 45 47 48 49 48
36 35 35 37 36 38 41 41 44 44 44 42 41 41 44 46 46 44 43 41 43 38 37 35 36 38 37 37 37 36 37 38 40 40 42 42 41 44 40 45 48 48 48 48 49
43 42 43 45 43 42 41 41 39 39 40 41 42 41 40 46 48 45 45 43 42 39 35 34 33 34 35 35 36 35 36 38 38 40 42 43 43 45 42 45 48 49 49 49 50
47 48 47 47 46 47 47 47 45 41 40 41 41 41 41 44 46 48 47 45 43 42 40 37 34 34 35 36 36 37 37 37 38 39 42 44 44 43 45 47 49 48 48 49 49
54 55 53 50 50 50 51 48 45 44 40 40 42 41 39 40 44 47 47 46 44 41 40 39 37 36 36 38 37 37 39 38 39 39 40 43 42 42 45 46 46 46 47 47 46
60 60 58 56 55 53 52 51 47 45 45 42 41 38 39 38 40 46 48 47 45 44 41 40 39 38 38 39 38 37 39 38 39 39 41 42 41 42 44 45 45 45 44 43 42
62 64 63 60 60 57 52 49 47 44 45 42 38 37 36 34 35 39 44 42 42 43 42 40 40 39 39 37 38 38 38 37 37 38 40 40 40 40 44 44 41 42 40 38 38
66 66 64 62 60 57 52 49 48 45 45 43 39 37 35 28 29 33 37 38 37 37 38 39 37 38 38 37 36 35 36 37 37 39 39 39 40 37 42 41 38 36 35 35 35
69 68 67 63 58 55 52 49 48 47 43 41 38 34 33 32 28 29 28 32 33 33 35 35 35 35 35 34 33 34 35 36 37 38 40 39 38 38 37 35 34 33 32 32 34
70 68 65 62 61 60 58 55 52 48 46 40 37 35 33 30 29 27 25 25 27 30 30 30 32 31 31 31 32 33 34 34 35 35 37 39 37 32 31 32 32 31 31 33 34
68 67 67 68 67 67 67 65 62 57 55 46 40 37 34 32 29 24 23 24 25 26 28 29 28 28 29 31 31 31 32 32 33 35 36 32 34 27 30 31 31 30 31 32 34
70 71 72 71 68 64 68 69 68 63 60 53 45 39 35 30 28 25 24 24 23 23 25 26 26 27 29 29 29 29 29 31 33 34 33 28 29 27 27 27 27 28 28 30 30
72 62 55 52 54 55 53 52 51 58 62 56 51 44 38 32 28 28 24 22 22 23 24 25 25 26 27 28 29 27 29 31 32 32 31 27 26 25 25 25 26 26 27 25 23
50 48 51 53 49 46 40 32 34 45 52 48 48 44 38 33 30 29 24 22 22 22 22 25 25 25 26 27 27 26 28 30 31 28 27 24 25 23 23 24 25 24 23 21 22
46 48 49 48 38 26 23 25 32 33 38 40 38 39 37 33 31 28 23 22 21 21 22 23 24 24 25 25 25 25 28 29 29 26 24 23 24 22 23 23 23 21 18 17 16
45 44 45 34 16 17 34 24 26 30 32 35 37 37 35 33 31 27 23 23 21 21 22 22 23 24 24 24 24 26 27 28 28 27 24 20 20 20 21 21 18 19 22 16 21
40 39 30 4 6 11 14 22 23 24 26 32 34 34 34 32 29 25 23 21 19 20 20 21 21 23 23 23 25 27 26 24 25 26 23 18 18 20 18 16 17 15 14 18 20
34 23 10 5 5 9 17 14 13 16 24 30 30 31 30 28 26 23 21 19 18 18 18 18 19 21 22 24 26 25 24 22 21 23 23 19 17 18 15 13 11 12 17 19 19
31 8 7 6 12 14 15 13 12 13 20 29 23 26 26 26 24 22 19 17 15 17 18 16 18 20 22 23 24 24 22 20 21 20 20 18 14 16 13 16 13 13 16 15 13
20 4 11 9 12 8 9 8 6 12 15 25 22 24 24 24 23 20 17 14 14 17 15 16 18 19 19 20 20 20 19 18 20 21 17 18 14 13 14 12 12 12 14 11 12
11 8 7 9 14 11 8 9 10 12 11 15 19 22 22 22 19 15 13 13 14 13 15 16 17 19 20 20 18 18 17 18 21 17 17 14 14 17 14 11 11 13 11 10 10
10 12 10 5 10 11 15 13 11 7 9 12 17 19 20 19 16 14 12 12 12 13 15 17 18 20 22 19 20 19 17 18 18 17 15 14 14 19 13 13 11 10 9 9 9
12 15 14 14 14 6 10 12 14 7 9 13 17 19 19 17 14 11 11 12 12 14 17 16 17 19 14 17 18 17 16 15 16 15 12 14 14 15 15 13 12 10 8 10 10
14 18 22 17 10 9 10 10 15 9 8 15 20 20 18 15 11 9 10 11 12 14 16 18 18 10 11 16 16 14 10 14 15 14 12 12 13 15 14 13 12 11 9 7 10
Wind_Direction
290 292 290 290 288 287 287 284 281 281 281 280 281 278 279 280 279 280 279 278 277 275 271 267 265 262 259 259 259 259 259 260 260 260 262 263 265 264 265 266 267 266 265 262 262
292 292 290 290 290 287 286 287 288 285 284 284 283 282 279 278 279 280 279 278 274 272 270 268 263 261 260 258 258 260 261 261 261 261 262 262 262 263 266 268 268 266 266 267 267
294 292 291 291 290 289 290 289 288 287 286 289 288 286 284 280 276 276 279 278 275 271 270 265 262 260 259 260 259 259 262 262 262 262 262 263 263 264 265 267 267 267 269 270 271
294 294 293 290 289 288 285 286 287 286 285 284 283 286 284 281 277 275 274 276 275 273 266 264 261 258 258 259 259 261 261 261 262 262 263 263 265 265 267 270 270 270 271 273 274
290 288 286 287 287 285 284 284 284 285 285 285 282 279 279 278 278 276 275 274 274 269 264 257 255 256 255 256 257 259 262 264 264 266 266 268 271 270 274 272 272 273 273 273 274
295 297 297 292 290 289 283 283 282 284 286 285 284 282 277 276 275 274 272 271 267 266 263 258 252 252 255 257 260 260 262 264 267 268 267 269 273 274 274 276 275 275 276 275 274
298 297 296 295 295 296 293 290 284 281 283 287 288 285 281 274 272 273 269 267 265 261 261 257 253 254 258 260 261 263 265 268 269 271 272 272 274 276 276 275 275 277 277 276 274
295 294 293 292 292 294 294 291 287 285 281 279 284 286 283 274 270 267 268 266 263 259 256 254 254 254 259 260 261 263 265 269 271 273 274 274 280 281 278 278 279 277 276 275 274
297 295 293 292 292 291 290 289 288 283 282 278 276 279 283 278 271 266 266 263 260 259 254 253 253 255 259 262 265 268 271 272 274 275 275 276 280 280 280 280 280 279 277 276 273
295 294 292 291 291 291 289 286 282 279 278 276 271 272 278 274 271 266 265 266 260 256 256 253 255 259 261 264 268 271 273 276 279 275 277 278 281 282 281 280 279 278 276 273 268
295 293 291 290 289 289 288 285 279 275 274 273 268 265 268 272 273 268 262 262 262 258 258 257 257 261 264 266 269 273 275 278 279 280 279 280 281 278 280 279 276 274 271 268 266
293 293 292 291 288 286 284 281 278 276 270 268 263 261 263 268 273 270 266 262 262 261 257 259 260 260 261 265 270 273 276 278 279 281 281 281 279 276 274 271 270 269 269 265 265
293 291 290 287 285 284 282 279 276 275 273 267 260 256 258 264 272 272 264 263 262 261 260 259 260 261 264 266 268 272 275 276 279 279 280 278 274 270 265 263 265 265 265 269 272
293 292 289 287 284 281 280 276 274 271 271 265 261 257 256 265 268 267 265 266 263 261 258 257 257 258 260 264 267 269 273 276 278 277 274 270 270 262 261 264 267 267 268 270 273
295 295 295 292 286 279 272 266 265 265 266 263 261 260 260 260 263 263 266 269 268 262 256 255 255 257 259 261 265 270 275 278 278 275 271 262 268 262 263 264 267 267 271 270 267
301 298 294 292 290 283 276 272 263 254 253 257 258 260 259 257 258 265 265 269 268 264 260 260 259 260 261 264 268 274 281 281 278 274 269 261 266 261 265 269 269 271 271 267 261
300 298 299 298 290 279 272 269 254 250 246 245 249 252 252 253 255 259 261 262 264 263 265 264 264 264 266 268 271 278 283 282 275 270 265 261 264 263 265 269 271 270 266 258 253
305 305 304 302 286 261 244 253 265 258 241 242 242 243 243 244 249 253 255 258 261 266 267 268 269 269 270 271 273 278 279 274 272 268 264 261 264 265 269 270 271 264 249 252 255
311 311 309 311 294 240 236 262 240 256 239 234 235 233 232 236 243 247 248 255 259 263 269 272 272 271 269 271 272 274 275 269 265 266 270 264 258 266 272 271 258 250 247 251 273
317 317 315 256 260 228 258 259 260 244 233 231 226 230 230 231 236 239 241 247 256 265 267 270 272 273 273 273 272 275 273 263 257 263 267 261 265 270 273 261 248 245 252 271 278
320 312 305 258 223 228 256 288 265 251 236 229 227 222 227 229 230 231 234 244 255 267 269 270 271 272 273 272 274 272 266 255 253 259 266 263 262 272 263 235 225 237 267 278 278
323 268 209 213 272 278 279 263 264 256 235 227 234 221 219 225 223 222 229 241 254 265 269 268 275 275 275 275 271 263 254 248 247 255 262 259 262 271 241 213 217 271 280 274 277
315 249 210 233 288 292 269 265 226 224 217 215 229 220 212 216 212 214 228 241 257 262 264 274 273 279 285 279 265 248 239 239 242 252 252 258 271 238 204 216 257 276 277 268 266
288 200 211 238 238 283 258 259 222 212 206 201 206 207 208 204 203 212 224 244 249 260 272 277 285 283 281 275 246 233 232 240 241 249 250 259 259 216 201 241 256 281 262 268 265
245 188 182 177 233 242 251 232 216 186 213 208 198 193 191 190 193 202 221 240 258 267 280 287 289 282 280 258 234 226 235 240 242 242 246 254 246 215 208 245 255 279 268 270 279
236 203 194 193 211 265 238 202 188 185 197 193 181 176 173 173 184 205 234 249 262 279 291 289 290 290 252 246 224 230 243 236 237 243 250 249 222 186 228 240 253 274 281 264 300
225 201 204 194 206 250 215 189 190 172 178 169 162 158 160 167 181 217 239 260 278 292 296 297 301 257 233 237 228 244 242 227 229 241 241 208 182 207 231 245 256 271 281 280 309